Regional Weather Roundup
Issued by NWS

Home | Current Version | Previous Version | Text Only | Print | Product List | Glossary Off
Versions: 1 2 3 4 5 6 7 8 9 10 11 12 13 14 15 16 17 18 19 20 21 22 23 24 25 26 27 28 29 30 31 32 33 34 35 36 37 38 39 40 41 42 43 44 45 46 47 48 49 50

000
ASUS43 KIND 301709
RWRIN

WEATHER ROUNDUP FOR INDIANA
NATIONAL WEATHER SERVICE INDIANAPOLIS IN
1200 PM EST FRI JAN 30 2015

NOTE: "FAIR" INDICATES FEW OR NO CLOUDS BELOW 12,000 FEET WITH NO
SIGNIFICANT WEATHER AND/OR OBSTRUCTIONS TO VISIBILITY.

* - STATION DOES NOT REPORT WEATHER SUCH AS PRECIPITATION OR FOG.

+ - STATION NOT QUALITY CONTROLLED BY THE NATIONAL WEATHER SERVICE.
    USE DATA WITH CAUTION...ESPECIALLY DEWPOINT AND RELATIVE
    HUMIDITY OBSERVATIONS.

INZ001>003-010>013-019-020-301800-
NORTHWEST INDIANA

CITY           SKY/WX    TMP DP  RH WIND       PRES   REMARKS
GARY /AIRPORT/ PTSUNNY   28  10  47 N14       30.54R WCI  17
KNOX *+        CLOUDY    28   0  29 N13G18    30.49S WCI  18
LA PORTE +     CLOUDY    28  16  61 N9        30.50S WCI  19
MICHIGAN CITY+ CLOUDY    27  10  50 N10       30.51S WCI  17
MONTICELLO +   CLOUDY    28  20  71 N9        30.50S WCI  19
RENSSELAER +   PTSUNNY   28  21  74 N9        30.52S WCI  20
VALPARAISO     CLOUDY    26  13  57 NW10      30.51R WCI  16

$$

LMZ046-743>745-301800-
SOUTHERN LAKE MICHIGAN

STATION/POSITION TIME  TEMP WIND        PRES
                       AIR  DIR/SP/G
                 (UTC) (F)  (DEG/KT/KT) (MB)
MICHIGAN CITY    1600   24  350/ 16/ 19   N/A

$$

INZ004-005-014>016-021>024-301800-
NORTH CENTRAL INDIANA

CITY           SKY/WX    TMP DP  RH WIND       PRES   REMARKS
ELKHART        CLOUDY    23   9  54 N7        30.49R WCI  15
GOSHEN         CLOUDY    24  14  65 N10       30.47F WCI  14
LOGANSPORT +   CLOUDY    28  16  59 N9        30.50S WCI  20
PERU/GRISSOM   CLOUDY    26  15  62 N13       30.47S WCI  15
ROCHESTER +    CLOUDY    28  21  74 NE5       30.49S WCI  23
SOUTH BEND     CLOUDY    25  14  63 VRB6      30.49S WCI  18
WARSAW +       CLOUDY    25  14  63 N9        30.48R WCI  15

$$

INZ006>009-017-018-025>027-301800-
NORTHEAST INDIANA

CITY           SKY/WX    TMP DP  RH WIND       PRES   REMARKS
ANGOLA *+      CLOUDY    21  10  63 NW8       30.45R WCI  12
AUBURN +       PTSUNNY   25  10  54 NW9G16    30.47S WCI  15
FORT WAYNE     PTSUNNY   24  11  57 N13       30.47S WCI  12
HUNTINGTON +   CLOUDY    24   9  53 N10G16    30.48S WCI  13

$$

INZ028-029-035-036-043>045-051>053-301800-
WEST CENTRAL INDIANA

CITY           SKY/WX    TMP DP  RH WIND       PRES   REMARKS
GREENCASTLE +  SUNNY     30  10  43 N10       30.51S WCI  21
LAFAYETTE      PTSUNNY   28  16  60 N12       30.52S WCI  18
TERRE HAUTE    SUNNY     33  15  47 N8        30.52S WCI  26

$$

INZ030>032-037>040-046>048-054>057-064-065-301800-
CENTRAL INDIANA

CITY           SKY/WX    TMP DP  RH WIND       PRES   REMARKS
CP ATTERBURY + CLOUDY    32  18  55 NW8       30.50S WCI  25
COLUMBUS       PTSUNNY   30  12  47 N17       30.50R WCI  18
GREENWOOD *+   CLOUDY    28  14  54 N8        30.49R WCI  20
INDIANAPOLIS   PTSUNNY   27  15  61 N12       30.49S WCI  17
-EAGLE CREEK   CLOUDY    28  16  60 N9        30.48S WCI  19
KOKOMO *+      CLOUDY    27  14  59 N14       30.48S WCI  15
MARION +       CLOUDY    25  15  67 N12       30.48S WCI  14
MT COMFORT *+  CLOUDY    28   9  43 N10       30.49S WCI  19
SHELBYVILLE    CLOUDY    30  16  56 N13       30.48S WCI  20
ZIONSVILLE +   CLOUDY    29  16  58 N10       30.49S WCI  19

$$

INZ033-034-041-042-049-050-058-059-301800-
EAST CENTRAL INDIANA

CITY           SKY/WX    TMP DP  RH WIND       PRES   REMARKS
MUNCIE         CLOUDY    25  15  66 N18       30.47S WCI  11

$$

INZ060-061-067>069-081>083-085>088-301800-
SOUTHWEST INDIANA

CITY           SKY/WX    TMP DP  RH WIND       PRES   REMARKS
EVANSVILLE     MOSUNNY   38  22  52 N8        30.54R
HUNTINGBURG *+ MOSUNNY   36  21  55 NW14      30.53R
WASHINGTON +   CLOUDY    32  19  57 N9        30.53R WCI  24

$$

INZ062-063-066-070>080-084-089>092-301800-
SOUTH CENTRAL AND SOUTHEAST INDIANA

CITY           SKY/WX    TMP DP  RH WIND       PRES   REMARKS
BLOOMINGTON    SUNNY     32  15  49 N7        30.49R WCI  26
NORTH VERNON + MOSUNNY   32  16  51 N13       30.49R WCI  22
SEYMOUR +      MOSUNNY   34  16  47 N9        30.50R WCI  26

$$



USA.gov is the U.S. government's official web portal to all federal, state and local government web resources and services.